ATLAS 5 CENTAUR DEB, 43965

Orbit data source: Space-Track

ATLAS 5 CENTAUR DEB, 43965 is space debris in HEO originally from a launch on Wed, 17 Sep 2014 UTC launched from the Air Force Eastern Test Range (AFETR). Debris objects in space refer to the collection of defunct objects orbiting the Earth. Examples of debris include non-operational satellites, rocket bodies, and fragments generated from explosions, collisions, or faulty payload assembly.

Loading next visibility...
Identifier
43965, 2014-055U
Orbit
HEO
Country
Flag of USUS
Related business
Flag of USUnited Launch Alliance/Lockheed Martin (US)
Manufacturer
Unknown
Mission
Spacecraft
Bus & Motor
Unknown
Mass
Unknown
Launch date (UTC)
2014-09-17 (11 years ago)
Launch vehicle
Unknown
Launch site
Air Force Eastern Test Range (AFETR)
Object type
Payload
Rocket body
Debris
Shape & HBR
Unknown shape, 1.1 m
Radar Cross Section
RCS unknown

Expand to show TLE details & history
Last TLE update: 1 day ago

TLE from 1 day ago
0 ATLAS 5 CENTAUR DEB
1 43965U 14055U   26071.88428514 -.00000129  00000-0  00000-0 0  9991
2 43965  20.5922 134.1537 4886370 186.0556 164.6841  1.89978904 52204
Epoch: 2026-03-12T21:13Z
TLE epoch observation values (Epoch: 2026-03-12T21:13:22.236Z)
Latitude
0.00005°
Longitude
5.31702°
Altitude
34,404.274 km
Speed
2.252 km/s
True Right ascension
08h 56m 44s
True Declination
0° 00' 00"
Sunlit
Object was in daylight at epoch
Visualization orbit readout
Latitude
Unknown
Longitude
Unknown
Altitude
Unknown
Speed
Unknown
Apparent Right ascension
Unknown
Apparent Declination
Unknown
Sunlit
N/A
Visualization observer readout
Local Sidereal Time
08:42:33
Azimuth
Unknown
Elevation
Unknown
Doppler factor
Unknown
Orbital elements
Apogee altitude
34,618.817 km
Perigee altitude
7,704.763 km
Semi-major axis
27,539.927 km
Eccentricity
0.48864
Inclination
20.5922°
RAAN
134.1537°
Arg. of periapsis
186.0556°
True anomaly
173.94852°
Mean anomaly
164.6841°
Eccentric anomaly
169.69324°
Mean motion
0.4749 °/min
Orbital period
758.06 mins
BSTAR
0
Loading maneuver chart data...
Computing Atmospheric mass density...

Documentation

Showing up to 5 results
|